Location: Acton
(51.4942°N, 0.2232°W)
Time: 23:21:55
(UTC+00:00)

Cosmos 909 Rocket - Pass Details

Date: 18 September 2020
Orbit: 991 x 2088 km, 65.9° (Epoch: 31 October)

Event Time Altitude Azimuth Distance (km) Brightness Sun altitude
Rises 21:37:41 0° 319° (NW) 3,994 8.4 -29.7°
Reaches altitude 10° 21:40:28 10° 320° (NW) 2,933 7.4 -30.0°
Enters shadow 21:47:00 85° 355° (N) 1,014 4.0 -30.6°
